This is the latest recevied weather packets stored in our database for station/object IN3MWE-10. If no packets are shown the sender has not sent any weather packets the latest 10 day(s).
| Time | Temp. | Humidity | Pressure | Rain* | Wind** | Luminosity | Snow |
|---|---|---|---|---|---|---|---|
| 1788140126 | 21.67° C | 88% | 979.9 hPa | - | - | - | - |
| 1788139226 | 22.22° C | 86% | 979.9 hPa | - | - | - | - |
| 1788138325 | 22.78° C | 81% | 979.8 hPa | - | - | - | - |
| 1788137425 | 22.78° C | 79% | 979.7 hPa | - | - | - | - |
| 1788136525 | 22.78° C | 77% | 979.8 hPa | - | - | - | - |
| 1788135625 | 22.78° C | 77% | 979.8 hPa | - | - | - | - |
| 1788134725 | 22.78° C | 78% | 979.8 hPa | - | - | - | - |
| 1788133825 | 22.78° C | 80% | 979.8 hPa | - | - | - | - |
| 1788132925 | 22.78° C | 80% | 979.8 hPa | - | - | - | - |
| 1788132025 | 22.78° C | 78% | 979.8 hPa | - | - | - | - |
| 1788131124 | 23.33° C | 77% | 979.8 hPa | - | - | - | - |
| 1788130224 | 23.33° C | 77% | 979.9 hPa | - | - | - | - |
| 1788129324 | 23.33° C | 73% | 979.8 hPa | - | - | - | - |
| 1788128424 | 23.89° C | 72% | 979.7 hPa | - | - | - | - |
| 1788127524 | 23.89° C | 70% | 979.6 hPa | - | - | - | - |
| 1788126624 | 23.89° C | 70% | 979.5 hPa | - | - | - | - |
| 1788125724 | 23.89° C | 69% | 979.6 hPa | - | - | - | - |
| 1788124823 | 23.89° C | 68% | 979.6 hPa | - | - | - | - |
| 1788123923 | 24.44° C | 69% | 979.3 hPa | - | - | - | - |
| 1788123023 | 24.44° C | 69% | 979.2 hPa | - | - | - | - |
| 1788122123 | 24.44° C | 68% | 979.1 hPa | - | - | - | - |
| 1788121223 | 24.44° C | 69% | 979 hPa | - | - | - | - |
| 1788120323 | 24.44° C | 68% | 978.9 hPa | - | - | - | - |
| 1788119423 | 24.44° C | 67% | 978.8 hPa | - | - | - | - |
| 1788118522 | 24.44° C | 69% | 978.9 hPa | - | - | - | - |
* Rain since midnight (hover to see other rain measurements)
** Current wind speed in m/s (hover to see current wind gust speed)